Regional Weather Roundup
Issued by NWS Bismarck, ND

Home | Current Version | Previous Version | Text Only | Print | Product List | Glossary On
Versions: 1 2 3 4 5 6 7 8 9 10 11 12 13 14 15 16 17 18 19 20 21 22 23 24 25 26 27 28 29 30 31 32 33 34 35 36 37 38 39 40 41 42 43 44 45 46 47 48 49 50
000
ASUS43 KBIS 280210
RWRBIS

NWR BROADCAST TEXT
NATIONAL WEATHER SERVICE BISMARCK ND
800 PM CST TUE JAN 27 2015

NOTE: "FAIR" INDICATES FEW OR NO CLOUDS BELOW 12,000 FEET WITH NO
SIGNIFICANT WEATHER AND/OR OBSTRUCTIONS TO VISIBILITY.


CITY           SKY/WX    TMP DP  RH WIND       PRES   REMARKS
WILLISTON      PTCLDY    31  29  92 CALM      29.78S
MINOT          PTCLDY    36  33  89 SW8       29.76F
MINOT AFB      PTCLDY    32  32 100 NW5       29.77F
BISMARCK       MOCLDY    35  32  88 E6        29.80F
DICKINSON      PTCLDY    38  32  79 S7        29.78S
GARRISON         N/A     37  34  89 CALM      29.78S
HETTINGER ARPT PTCLDY    34  29  82 NW3       29.82F
JAMESTOWN      FOG       32  31  96 SE10      29.85S VSB 1/2
BEACH          FAIR      34  32  93 S5        29.81S
CARRINGTON     FAIR      34  34 100 MISG      29.83F
CROSBY         FAIR      32  32 100 N5        29.79F
HARVEY         FAIR      32  32 100 SE6       29.79F
HAZEN          FAIR      32  30  93 CALM      29.79F
LINTON         FAIR      37  37 100 SE12      29.82S
MANDAN         FAIR      45  36  70 S5        29.80F
OAKES            N/A     32  32 100 SE10      29.89F
RUGBY          FAIR      32  32 100 E7        29.79S
TIOGA          FAIR      32  32 100 SW5       29.80S
WATFORD CITY   FAIR      37  34  87 CALM      29.75F
$$

CITY           SKY/WX    TMP DP  RH WIND       PRES   REMARKS
GRAND FORKS    CLOUDY    32  29  88 S16G24    29.93S
GRAND FORKS AF CLOUDY    31  29  92 S15       29.92S
DEVILS LAKE    CLOUDY    34  32  93 SE9       29.83S
FARGO          CLOUDY    33  29  85 S15       29.96S
CANDO          CLOUDY    32  32 100 SE10      29.82F
CAVALIER       CLOUDY    32  32 100 S8        29.91S FOG
GWINNER        CLOUDY    32  32 100 CALM      29.92F VSB 1
LANGDON        FOG       32  32 100 S17       29.84S VSB 1/2
ROLLA          CLOUDY    30  30 100 S5        29.82S
WALHALLA         N/A     32  32 100 SE10      29.90S
$$

CITY           SKY/WX    TMP DP  RH WIND       PRES   REMARKS
ABERDEEN       CLEAR     34  31  88 S12       29.90S
MOBRIDGE       CLEAR     40  32  73 SE9       29.80F
BUFFALO          N/A     52  31  44 W3        29.76F
RAPID CITY     CLOUDY    47  29  49 NW5       29.84S
GLASGOW        MOCLDY    39  32  76 E3        29.77S
SIDNEY         CLOUDY    37  34  87 CALM      29.79F
WOLF POINT     CLOUDY    36  33  89 CALM      29.78S
GLENDIVE       PTCLDY    37  32  81 SW5       29.81R
MILES CITY     CLOUDY    52  34  50 S5        29.80S
BAKER          CLOUDY    40  31  70 CALM      29.82S
$$

CITY           SKY/WX    TMP DP  RH WIND       PRES   REMARKS
BILLINGS       CLOUDY    52  28  39 W12       29.86F
GREAT FALLS    MOCLDY    52  26  36 SW15      29.84S
REGINA         MOCLDY    28  27  93 E3        29.79S
ESTEVAN        CLOUDY    32  30  93 S5        29.78S
$$




USA.gov is the U.S. government's official web portal to all federal, state and local government web resources and services.